W4SNA-2 Weather Reports


time (UTC)temp
C
wind
direction
speed
KPH
gust
KPH
rain 1hr
cm
rain 24hr
cm
rain mn
cm
humidity
%
barometer
mb
20260510162500 23 0 0.0 17.7 0.00 0.00 0.00 40 1018.3
20260510162000 23 262 3.2 17.7 0.00 0.00 0.00 39 1018.3
20260510161500 23 0 0.0 14.5 0.00 0.00 0.00 38 1018.4
20260510161000 23 0 0.0 14.5 0.00 0.00 0.00 33 1018.4
20260510160500 22 0 0.0 12.9 0.00 0.00 0.00 35 1018.5
20260510160000 22 329 1.6 12.9 0.00 0.00 0.00 35 1018.5
20260510155500 22 329 3.2 16.1 0.00 0.00 0.00 44 1018.4
20260510155000 22 330 1.6 16.1 0.00 0.00 0.00 48 1018.4
20260510154500 22 0 0.0 9.7 0.00 0.00 0.00 48 1018.6
20260510154000 22 0 0.0 6.4 0.00 0.00 0.00 50 1018.6
20260510153503 22 0 0.0 9.7 0.00 0.00 0.00 53 1018.6
20260510153000 21 330 3.2 24.1 0.00 0.00 0.00 53 1018.5
20260510152500 21 330 1.6 24.1 0.00 0.00 0.00 56 1018.6
20260510152002 21 323 1.6 9.7 0.00 0.00 0.00 57 1018.6
20260510151500 21 323 3.2 9.7 0.00 0.00 0.00 58 1018.7
20260510151000 21 325 1.6 14.5 0.00 0.00 0.00 57 1018.6
20260510150500 21 327 3.2 14.5 0.00 0.00 0.00 60 1018.7
20260510150000 21 0 0.0 9.7 0.00 0.00 0.00 60 1018.7
20260510145500 21 0 0.0 9.7 0.00 0.00 0.00 60 1018.6
20260510145001 20 0 0.0 8.0 0.00 0.00 0.00 58 1018.5
20260510144500 21 0 0.0 16.1 0.00 0.00 0.00 59 1018.6
20260510144000 21 329 3.2 16.1 0.00 0.00 0.00 58 1018.5
20260510143501 20 0 0.0 14.5 0.00 0.00 0.00 59 1018.5
20260510143001 20 329 1.6 14.5 0.00 0.00 0.00 58 1018.6
20260510142500 20 0 0.0 14.5 0.00 0.00 0.00 60 1018.6
20260510142000 20 327 1.6 14.5 0.00 0.00 0.00 59 1018.6
20260510141500 19 0 0.0 12.9 0.00 0.00 0.00 59 1018.7
20260510141003 19 321 3.2 14.5 0.00 0.00 0.00 61 1018.7
20260510140501 19 332 3.2 19.3 0.00 0.00 0.00 58 1018.6
20260510140000 18 355 1.6 19.3 0.00 0.00 0.00 60 1018.6
20260510135502 18 312 6.4 19.3 0.00 0.00 0.00 59 1018.6
20260510135002 18 0 0.0 16.1 0.00 0.00 0.00 60 1018.7
20260510134500 18 347 6.4 16.1 0.00 0.00 0.00 59 1018.6
20260510134002 18 333 4.8 16.1 0.00 0.00 0.00 58 1018.6
20260510133500 18 321 3.2 20.9 0.00 0.00 0.00 58 1018.6
20260510133002 18 319 8.0 24.1 0.00 0.00 0.00 57 1018.5
20260510132500 18 314 8.0 24.1 0.00 0.00 0.00 59 1018.6
20260510132002 18 0 0.0 17.7 0.00 0.00 0.00 58 1018.5
20260510131500 18 339 3.2 17.7 0.00 0.00 0.00 60 1018.5
20260510131000 17 340 3.2 17.7 0.00 0.00 0.00 57 1018.4
20260510130502 17 336 3.2 14.5 0.00 0.00 0.00 61 1018.3
20260510130006 17 311 3.2 14.5 0.00 0.00 0.00 60 1018.3
20260510125500 17 327 3.2 14.5 0.00 0.00 0.00 59 1018.3
20260510125003 17 322 6.4 17.7 0.00 0.00 0.00 59 1018.2
20260510124500 17 298 3.2 17.7 0.00 0.00 0.00 61 1018.3
20260510124000 16 328 4.8 12.9 0.00 0.00 0.00 61 1018.2
20260510123501 16 317 3.2 14.5 0.00 0.00 0.00 66 1018.2
20260510123002 16 306 4.8 17.7 0.00 0.00 0.00 65 1018.1
20260510122501 16 324 4.8 17.7 0.00 0.00 0.00 65 1018.0
20260510122003 16 323 4.8 12.9 0.00 0.00 0.00 66 1018.1
20260510121501 16 323 6.4 12.9 0.00 0.00 0.00 65 1018.0
20260510121004 15 324 6.4 16.1 0.00 0.00 0.00 64 1017.8
20260510120502 15 337 6.4 16.1 0.00 0.00 0.00 65 1017.7
20260510115600 15 330 8.0 22.5 0.00 0.00 0.00 64 1017.5
20260510115100 15 329 6.4 16.1 0.00 0.00 0.00 66 1017.3
20260510114600 15 331 6.4 16.1 0.00 0.00 0.00 67 1017.3
20260510114102 15 330 8.0 16.1 0.00 0.00 0.00 66 1017.2
20260510113600 15 324 8.0 16.1 0.00 0.00 0.00 65 1017.0
20260510112819 15 322 6.4 14.5 0.00 0.00 0.00 67 1016.9
20260510112319 15 325 8.0 19.3 0.00 0.00 0.00 68 1016.7
20260510111820 15 321 8.0 24.1 0.00 0.00 0.00 67 1016.6
20260510111319 15 321 8.0 24.1 0.00 0.00 0.00 67 1016.5
20260510110820 14 321 11.3 20.9 0.00 0.00 0.00 70 1016.5
20260510110319 14 331 9.7 20.9 0.00 0.00 0.00 73 1016.4
20260510105819 14 323 8.0 24.1 0.00 0.00 0.00 74 1016.4
20260510105319 14 322 12.9 25.7 0.00 0.00 0.00 75 1016.4
20260510104819 14 326 16.1 25.7 0.00 0.00 0.00 76 1016.3
20260510104323 14 320 11.3 22.5 0.00 0.00 0.00 76 1016.3
20260510103819 14 331 9.7 22.5 0.00 0.00 0.00 76 1016.1
20260510103319 14 325 11.3 19.3 0.00 0.00 0.00 76 1016.1
20260510102819 14 321 11.3 20.9 0.00 0.00 0.00 76 1016.1
20260510102319 14 330 12.9 22.5 0.00 0.00 0.00 77 1015.9
20260510101819 14 325 9.7 22.5 0.00 0.00 0.00 76 1015.9
20260510101319 15 330 11.3 20.9 0.00 0.00 0.00 76 1015.8
20260510100819 15 328 11.3 22.5 0.00 0.00 0.00 76 1015.8
20260510100319 15 355 11.3 22.5 0.00 0.00 0.00 76 1015.8
20260510095825 14 323 9.7 20.9 0.00 0.00 0.00 76 1015.7
20260510095319 15 330 8.0 20.9 0.00 0.00 0.00 76 1015.7
20260510094820 15 330 8.0 20.9 0.00 0.00 0.00 76 1015.7
20260510094319 15 331 8.0 17.7 0.00 0.00 0.00 75 1015.6
20260510093819 15 325 6.4 20.9 0.00 0.00 0.00 75 1015.7
20260510093319 15 324 8.0 20.9 0.00 0.00 0.00 75 1015.7
20260510092820 15 319 8.0 17.7 0.00 0.00 0.00 75 1015.6
20260510092307 15 324 1.6 19.3 0.00 0.00 0.00 75 1015.6
20260510091737 15 325 3.2 12.9 0.00 0.00 0.00 74 1015.6
20260510091215 15 0 0.0 12.9 0.00 0.00 0.00 74 1015.6
20260510090211 15 324 1.6 16.1 0.00 0.00 0.00 74 1015.5
20260510085434 15 0 0.0 4.8 0.00 0.00 0.00 73 1015.6
20260510084934 15 0 0.0 12.9 0.00 0.00 0.00 73 1015.5
20260510084434 15 0 0.0 12.9 0.00 0.00 0.00 73 1015.4
20260510083934 15 0 0.0 8.0 0.00 0.00 0.00 74 1015.4
20260510083436 15 0 0.0 9.7 0.00 0.00 0.00 74 1015.3
20260510082934 15 0 0.0 12.9 0.00 0.00 0.00 74 1015.2
20260510082434 15 0 0.0 19.3 0.00 0.00 0.00 73 1015.1
20260510081934 15 321 6.4 19.3 0.00 0.00 0.00 73 1015.0
20260510081437 15 0 0.0 16.1 0.00 0.00 0.00 73 1015.0
20260510080934 15 0 0.0 24.1 0.00 0.00 0.00 73 1014.9
20260510080435 15 323 9.7 24.1 0.00 0.00 0.00 73 1014.8
20260510075935 15 324 4.8 19.3 0.00 0.00 0.00 73 1014.8
20260510075434 15 324 4.8 16.1 0.00 0.00 0.00 72 1014.8
20260510074934 15 0 0.0 24.1 0.00 0.00 0.00 72 1014.9
20260510074434 15 328 1.6 24.1 0.00 0.00 0.00 72 1014.9
20260510073935 15 328 1.6 19.3 0.00 0.00 0.00 72 1014.9
20260510073434 15 327 4.8 17.7 0.00 0.00 0.00 72 1014.8
20260510072934 15 325 4.8 17.7 0.00 0.00 0.00 72 1014.9
20260510072435 15 0 0.0 3.2 0.00 0.00 0.00 73 1014.9
20260510071934 15 0 0.0 9.7 0.00 0.00 0.00 73 1014.8
20260510071435 15 0 0.0 9.7 0.00 0.00 0.00 73 1014.6
20260510070934 15 326 3.2 14.5 0.00 0.00 0.00 73 1014.6
20260510070434 15 327 1.6 16.1 0.00 0.00 0.00 73 1014.6
20260510065934 16 326 4.8 16.1 0.00 0.00 0.00 73 1014.7
20260510065434 15 327 1.6 12.9 0.00 0.00 0.00 74 1014.7
20260510064934 16 0 0.0 8.0 0.00 0.00 0.00 73 1014.7
20260510064434 16 0 0.0 9.7 0.00 0.00 0.00 74 1014.8
20260510063934 16 325 1.6 9.7 0.00 0.00 0.00 73 1014.7
20260510063434 16 325 3.2 9.7 0.00 0.00 0.00 74 1014.5
20260510062837 16 324 6.4 9.7 0.00 0.00 0.00 73 1014.5
20260510062337 16 0 0.0 9.7 0.00 0.00 0.00 73 1014.7
20260510061837 16 323 3.2 8.0 0.00 0.00 0.00 73 1014.7
20260510061337 16 0 0.0 16.1 0.00 0.00 0.00 73 1014.7
20260510060837 16 0 0.0 16.1 0.00 0.00 0.00 75 1014.7
20260510060338 16 322 6.4 17.7 0.00 0.00 0.00 76 1014.6
20260510060133 16 317 6.4 17.7 0.00 0.00 0.00 76 1014.7
20260510055837 16 317 6.4 17.7 0.00 0.00 0.00 76 1014.7
20260510055338 16 325 1.6 12.9 0.00 0.00 0.00 82 1014.8
20260510054837 16 321 1.6 12.9 0.00 0.00 0.00 85 1014.8
20260510054337 16 317 1.6 14.5 0.00 0.00 0.00 87 1014.9
20260510053837 16 320 3.2 14.5 0.00 0.00 0.00 89 1014.8
20260510053337 16 322 1.6 12.9 0.00 0.00 0.00 90 1014.8
20260510052838 16 0 0.0 9.7 0.00 0.00 0.00 90 1015.0
20260510052337 16 322 1.6 12.9 0.00 0.00 0.00 90 1015.0
20260510051837 16 323 1.6 16.1 0.00 0.00 0.00 90 1015.0
20260510051338 16 322 4.8 16.1 0.00 0.00 0.00 90 1015.1
20260510050837 16 0 0.0 14.5 0.00 0.00 0.00 90 1015.1
20260510050337 16 320 3.2 14.5 0.00 0.00 0.00 90 1015.0
20260510045837 16 322 1.6 9.7 0.00 0.00 0.00 90 1015.1
20260510045339 16 321 1.6 12.9 0.00 0.00 0.00 90 1015.2
20260510044837 16 321 1.6 22.5 0.00 0.00 0.00 90 1015.3
20260510044338 16 0 0.0 22.5 0.00 0.00 0.00 90 1015.1
20260510043837 16 323 3.2 17.7 0.00 0.00 0.00 90 1015.1
20260510043340 16 320 1.6 17.7 0.00 0.00 0.00 90 1015.2
20260510042840 16 283 1.6 12.9 0.00 0.00 0.00 90 1015.2
20260510042340 16 285 1.6 12.9 0.00 0.00 0.00 90 1015.2
20260510041720 16 0 0.0 12.9 0.00 0.00 0.00 89 1015.2
20260510041220 16 0 0.0 17.7 0.00 0.00 0.00 89 1015.2
20260510040720 16 324 1.6 17.7 0.00 0.00 0.00 89 1015.2
20260510040220 16 0 0.0 12.9 0.00 0.00 0.00 89 1015.3
20260510035720 16 0 0.0 12.9 0.00 0.00 0.00 89 1015.3
20260510035222 16 0 0.0 14.5 0.00 0.00 0.00 89 1015.4
20260510034721 16 248 1.6 25.7 0.00 0.00 0.00 90 1015.3
20260510034221 16 248 1.6 25.7 0.00 0.00 0.00 90 1015.3
20260510033721 16 0 0.0 6.4 0.00 0.00 0.00 90 1015.3
20260510033222 16 0 0.0 11.3 0.00 0.00 0.00 90 1015.4
20260510033105 16 0 0.0 11.3 0.00 0.00 0.00 90 1015.4
20260510032720 16 0 0.0 11.3 0.00 0.00 0.00 90 1015.4
20260510032222 16 0 0.0 9.7 0.00 0.00 0.00 90 1015.3
20260510031720 16 0 0.0 11.3 0.00 0.00 0.00 90 1015.3
20260510031221 16 0 0.0 11.3 0.00 0.00 0.00 89 1015.3
20260510030720 16 202 3.2 12.9 0.00 0.00 0.00 89 1015.2
20260510030220 16 0 0.0 12.9 0.00 0.00 0.00 89 1015.2
20260510025722 16 0 0.0 11.3 0.00 0.00 0.00 89 1015.1
20260510025221 16 202 1.6 11.3 0.00 0.00 0.00 88 1015.1
20260510024720 16 202 3.2 12.9 0.00 0.00 0.00 88 1015.0
20260510024221 16 202 1.6 12.9 0.00 0.00 0.00 88 1015.1
20260510023722 16 0 0.0 11.3 0.00 0.00 0.00 88 1015.0
20260510023220 16 0 0.0 11.3 0.00 0.00 0.00 88 1015.0
20260510022720 16 199 1.6 12.9 0.00 0.00 0.00 88 1014.8
20260510022221 16 199 4.8 14.5 0.00 0.00 0.00 88 1014.9
20260510021720 16 200 4.8 29.0 0.00 0.00 0.00 87 1014.8
20260510021220 16 201 4.8 29.0 0.00 0.00 0.00 87 1014.7
20260510020339 16 203 4.8 25.7 0.00 0.00 0.00 87 1014.6
20260510015837 16 204 3.2 29.0 0.00 0.00 0.00 87 1014.6
20260510015337 16 199 11.3 29.0 0.00 0.00 0.00 86 1014.5
20260510014837 16 200 9.7 27.4 0.00 0.00 0.00 86 1014.5
20260510014337 17 206 11.3 25.7 0.00 0.00 0.00 86 1014.5
20260510013837 17 201 11.3 27.4 0.00 0.00 0.00 85 1014.4
20260510013337 17 199 9.7 27.4 0.00 0.00 0.00 85 1014.2
20260510012756 17 197 6.4 20.9 0.00 0.00 0.00 85 1014.1
20260510012255 17 200 4.8 20.9 0.00 0.00 0.00 85 1014.1
20260510011756 17 201 8.0 24.1 0.00 0.00 0.00 85 1013.9
20260510011255 17 197 11.3 24.1 0.00 0.00 0.00 84 1013.9
20260510010755 17 199 11.3 25.7 0.00 0.00 0.00 85 1013.7
20260510010255 17 199 12.9 25.7 0.00 0.00 0.00 84 1013.7
20260510005755 17 198 11.3 19.3 0.00 0.00 0.00 84 1013.6
20260510005255 17 199 6.4 17.7 0.00 0.00 0.00 84 1013.5
20260510004755 17 199 4.8 19.3 0.00 0.00 0.00 83 1013.4
20260510004255 17 200 6.4 19.3 0.00 0.00 0.00 83 1013.4
20260510003755 17 199 6.4 17.7 0.00 0.00 0.00 82 1013.2
20260510003255 17 199 4.8 17.7 0.00 0.00 0.00 82 1013.1
20260510002755 17 199 6.4 17.7 0.00 0.00 0.00 81 1013.1
20260510002255 17 199 4.8 19.3 0.00 0.00 0.00 81 1013.1
20260510001755 17 198 3.2 19.3 0.00 0.00 0.00 80 1013.0
20260510001255 17 200 6.4 14.5 0.00 0.00 0.00 80 1013.2
20260510000755 18 199 6.4 16.1 0.00 0.00 0.00 79 1013.1
20260510000256 18 199 4.8 16.1 0.00 0.00 0.00 79 1013.0
20260509235755 18 201 8.0 16.1 0.00 0.00 0.00 79 1012.9
20260509235257 18 200 4.8 14.5 0.00 0.00 0.00 78 1013.0
20260509234755 18 200 6.4 17.7 0.00 0.00 0.00 78 1013.0
20260509234255 18 198 6.4 17.7 0.00 0.00 0.00 78 1012.9
20260509233755 18 196 6.4 16.1 0.00 0.00 0.00 77 1013.0
20260509233255 18 197 6.4 14.5 0.00 0.00 0.00 76 1012.9
20260509232755 18 195 4.8 12.9 0.00 0.00 0.00 76 1012.8
20260509232255 18 192 3.2 12.9 0.00 0.00 0.00 76 1011.8
20260509231755 18 196 4.8 12.9 0.00 0.00 0.00 76 1011.7
20260509231254 18 193 4.8 11.3 0.00 0.00 0.00 75 1011.7
20260509230754 18 204 4.8 12.9 0.00 0.00 0.00 74 1011.8
20260509230255 18 200 4.8 12.9 0.00 0.00 0.00 74 1011.6
20260509225755 18 193 1.6 11.3 0.00 0.00 0.00 74 1011.6
20260509225255 19 193 1.6 9.7 0.00 0.00 0.00 72 1011.5
20260509224755 19 193 1.6 9.7 0.00 0.00 0.00 72 1011.4
20260509224257 19 0 0.0 12.9 0.00 0.00 0.00 71 1011.4
20260509223755 19 0 0.0 12.9 0.00 0.00 0.00 71 1011.4
20260509223257 19 197 1.6 8.0 0.00 0.00 0.00 71 1011.3
20260509222544 19 197 1.6 12.9 0.00 0.00 0.00 71 1011.5
20260509222044 19 197 4.8 12.9 0.00 0.00 0.00 70 1011.3
20260509221544 19 0 0.0 4.8 0.00 0.00 0.00 70 1011.4
20260509221044 20 0 0.0 12.9 0.00 0.00 0.00 70 1011.5
20260509220544 20 196 1.6 12.9 0.00 0.00 0.00 70 1011.4
20260509220044 19 199 4.8 12.9 0.00 0.00 0.00 69 1011.4
20260509215544 19 0 0.0 11.3 0.00 0.00 0.00 70 1011.5
20260509215044 19 199 3.2 11.3 0.00 0.00 0.00 69 1011.5
20260509214544 19 199 3.2 12.9 0.00 0.00 0.00 69 1011.5
20260509214044 19 199 4.8 12.9 0.00 0.00 0.00 69 1011.3
20260509213544 19 199 1.6 9.7 0.00 0.00 0.00 69 1011.1
20260509213044 20 199 1.6 11.3 0.00 0.00 0.00 68 1011.2
20260509212544 20 199 4.8 14.5 0.00 0.00 0.00 68 1011.3
20260509212044 20 194 6.4 14.5 0.00 0.00 0.00 67 1011.4
20260509211544 20 191 4.8 9.7 0.00 0.00 0.00 67 1011.3
20260509211044 20 189 3.2 9.7 0.00 0.00 0.00 66 1011.3
20260509210051 20 200 4.8 14.5 0.00 0.00 0.00 68 1010.9
20260509205551 20 204 4.8 14.5 0.00 0.00 0.00 66 1010.9
20260509205051 20 198 6.4 14.5 0.00 0.00 0.00 67 1010.9
20260509204551 20 189 4.8 12.9 0.00 0.00 0.00 66 1010.9
20260509204052 20 187 4.8 11.3 0.00 0.00 0.00 64 1010.9
20260509203551 20 185 3.2 11.3 0.00 0.00 0.00 66 1011.0
20260509203051 21 185 4.8 11.3 0.00 0.00 0.00 66 1011.0
20260509202420 21 182 4.8 12.9 0.00 0.00 0.00 66 1011.0
20260509201920 21 199 4.8 12.9 0.00 0.00 0.00 65 1011.0
20260509201421 21 195 3.2 14.5 0.00 0.00 0.00 65 1011.0
20260509200921 20 0 0.0 14.5 0.00 0.00 0.00 63 1011.0
20260509200421 21 190 4.8 17.7 0.00 0.00 0.00 62 1011.1
20260509195920 21 203 8.0 17.7 0.00 0.00 0.00 61 1011.1
20260509195420 21 193 4.8 20.9 0.00 0.00 0.00 62 1011.1
20260509194920 21 196 8.0 20.9 0.00 0.00 0.00 62 1011.1
20260509194420 21 196 4.8 19.3 0.00 0.00 0.00 66 1011.3
20260509193920 20 199 3.2 16.1 0.00 0.00 0.00 65 1011.4
20260509193420 20 198 6.4 16.1 0.00 0.00 0.00 64 1011.5
20260509192920 21 194 4.8 19.3 0.00 0.00 0.00 62 1011.5
20260509192420 21 190 6.4 19.3 0.00 0.00 0.00 62 1011.5
20260509191920 21 193 8.0 19.3 0.00 0.00 0.00 64 1011.6
20260509191420 21 192 6.4 16.1 0.00 0.00 0.00 63 1011.6
20260509190920 21 184 4.8 16.1 0.00 0.00 0.00 61 1011.6
20260509190420 21 176 4.8 16.1 0.00 0.00 0.00 61 1011.5
20260509185920 21 185 3.2 11.3 0.00 0.00 0.00 62 1011.4
20260509185420 20 192 1.6 11.3 0.00 0.00 0.00 63 1011.4
20260509184558 20 201 6.4 14.5 0.00 0.00 0.00 64 1011.5
20260509184057 20 196 3.2 12.9 0.00 0.00 0.00 64 1011.7
20260509183558 20 195 4.8 12.9 0.00 0.00 0.00 66 1011.8
20260509183057 20 186 4.8 19.3 0.00 0.00 0.00 64 1011.9
20260509182558 20 201 4.8 19.3 0.00 0.00 0.00 66 1011.8
20260509182058 20 202 6.4 14.5 0.00 0.00 0.00 62 1012.0
20260509181557 20 171 3.2 14.5 0.00 0.00 0.00 66 1012.0
20260509181057 19 190 4.8 12.9 0.00 0.00 0.00 68 1012.2
20260509180557 19 196 4.8 16.1 0.00 0.00 0.00 67 1012.2
20260509180057 19 204 1.6 16.1 0.00 0.00 0.00 69 1012.2
20260509175558 19 197 1.6 11.3 0.00 0.00 0.00 70 1012.4
20260509175058 18 200 3.2 14.5 0.00 0.00 0.00 67 1012.6
20260509174558 18 198 1.6 14.5 0.00 0.00 0.00 68 1012.6
20260509174059 18 204 1.6 14.5 0.00 0.00 0.00 69 1012.5
20260509173557 18 0 0.0 16.1 0.00 0.00 0.00 70 1012.8
20260509173057 19 197 6.4 16.1 0.00 0.00 0.00 67 1012.6
20260509172557 20 202 1.6 11.3 0.00 0.00 0.00 67 1012.6
20260509172057 20 197 3.2 11.3 0.00 0.00 0.00 66 1012.8
20260509171557 19 200 3.2 9.7 0.00 0.00 0.00 67 1012.6
20260509171057 18 207 1.6 14.5 0.00 0.00 0.00 70 1012.7
20260509170557 18 0 0.0 14.5 0.00 0.00 0.00 70 1012.9
20260509170057 18 196 3.2 14.5 0.00 0.00 0.00 72 1013.0
20260509165557 17 190 3.2 17.7 0.00 0.00 0.00 72 1013.0
20260509165059 18 199 4.8 17.7 0.00 0.00 0.00 72 1013.0
20260509164558 18 197 8.0 17.7 0.00 0.00 0.00 73 1013.1
20260509163941 17 0 0.0 14.5 0.00 0.00 0.00 74 1013.2
20260509163441 17 197 1.6 14.5 0.00 0.00 0.00 78 1013.2
20260509162941 17 198 3.2 14.5 0.00 0.00 0.00 75 1013.4